Погода Великие Луки

Погода Великие Луки : погода сейчас, прогноз погоды и архив. Всё, что Вы хотите узнать о погоде Великие Луки!

Поиск расширенной информации на нашем сайте:

Другие новости

Новости СМИ2

Главная страница сайта

Новости сайта

03.07.2017

Напоминаем, что на нашем специализированном сайте Метеоцентр.Азия вы можете получить высокодетализированные автоматические прогнозы погоды по пунктам России, СНГ и мира в авиационном формате (включающие направление и скорость ветра, видимость, явления погоды, количество и форму облачности, нижнюю и верхнюю границу облачности).


Погода Великие Луки - сегодня

Время (UTC), дата Ветер
(°,м/с) 
Видим.   Явления Облачность Т
(°С)
Тd
(°С)
f(%) Тe
(°С)
Pmin
(гПа)
dP
(гПа)
Po
(мм)
O2
(г/м3)
Тmin Tmax R s Состояние
почвы
09 18.04.18 300 (СЗ) 4{10}  10 км    10/10 600 м кучево-дожд. 
[Cb cap]
+8 +3.8 75 +7  1014.9  752  294           
18 18.04.18 310 (СЗ) 4{11}  4000 м  слаб. дождь{ливн. осадки}  10/10 300 м 
[Frnb]
+6.8 +6.5 98 +5  1015.7  0.2  752  295    +8.9  0.3     
03 19.04.18 320 (СЗ) 10 км    10/10 1000 м 
[Sc]
+6.7 +4.9 88 +6  1014.8  -0.3  751  295  +6.5       
09 19.04.18 340 (С) 10 км    9/9 600 м кучево-дожд. 
[Cb cap]
+8.9 +5.3 78 +8  1015.6  0.5  752  293           
15 19.04.18 340 (С) 10 км    10/4 600 м верхняя 
[Cu Sc|Ci fib]
+13.8 +3 48 +14  1016.7  0.6  753  288           
21 19.04.18 300 (СЗ) 10 км    ясно 
+7.3 +4.9 85 +7  1020  1.3  755  296           
00 20.04.18 310 (СЗ) 10 км    ясно 
+5.9 +3.2 83 +7  1020.6  0.6  756  298           
03 20.04.18 280 (З) 10 км    8/0 средняя 
[Ac trans]
+4.4 +2.4 87 +5  1021.3  0.6  756  299  +4.1         
09 20.04.18 330 (СЗ) 10 км    10/4 600 м верхняя 
[Cu hum|Ci fib]
+14.8 +0.5 38 +15  1020.5  -0.6  756  289           
12 20.04.18 310 (СЗ) 10 км    10/3 1000 м верхняя 
[Cu med, cong|Ci ing]
+17 -0.1 31 +17  1018.5  -2  754  286           
15 20.04.18 270 (З) 10 км    10/4 1000 м верхняя 
[Sc|Ci fib]
+17.3 +0.1 31 +18  1015.7  -2.7  752  285           
21 20.04.18 230 (ЮЗ) 10 км    10/10 600 м 
[Sc]
+13 +4.9 58 +13  1010.8  -3  749  287           
00 21.04.18 260 (З) 10 км    10/0 верхняя 
[Ci fib]
+12.7 +8.1 74 +12  1008.1  -2.6  747  286           
03 21.04.18 220 (ЮЗ) 10 км    10/0 средняя, верхняя 
[Ac trans|Ci]
+11 +7 76 +10  1003.7  -4.5  743  287  +11.3         
06 21.04.18 230 (ЮЗ) 6{11}  10 км    10/3 1500 м верхняя 
[Cu Sc|Cs]
+13.8 +6.9 63 +13  998.6  -4.8  740  283  +10.8        мокрая 
03 22.04.18 290 (З) 4000 м  слаб. ливневой дождь  10/10 600 м кучево-дожд. 
[Cb cap]
+6.3 +1.7 72 +5  1003.9  0.3  743  292  +6.3    0.5     
06 22.04.18 300 (СЗ) 4{11}  10 км  {ливн. осадки}  10/10 600 м кучево-дожд. 
[Cb cap]
+6.5 +2.6 76 +5  1004.7  0.8  744  292  +6.3    0.5    мокрая 
21 22.04.18 тихо ()   10 км    3/3 1000 м 
[Sc]
+1.9 -1 81 +2  1014.5  1.7  751  301           
00 23.04.18 300 (СЗ) 10 км    ясно 
-0.1 -1.5 90 +1  1016  1.3  752  303           
03 23.04.18 тихо ()   10 км    ясно 
-1.7 -3.3 89 -2  1017.2  1.2  753  306  -1.7         
09 23.04.18 330 (СЗ) 10 км    10/0 верхняя 
[Ci fib]
+6.5 -5.1 43 +6  1017.5  -0.5  753  297           
12 23.04.18 260 (З) 10 км    10/0 верхняя 
[Ci fib]
+9.1 -8.1 29 +9  1016.1  -1.2  752  294           
15 23.04.18 330 (СЗ) 10 км    ясно 
+10.1 -7.1 29 +11  1014.6  -1.5  751  293           
21 23.04.18 тихо ()   10 км    ясно 
+0.3 -2.1 84 1013.6  -0.6  750  302           
00 24.04.18 110 (В) 10 км    10/0 верхняя 
[Ci fib]
+0.2 -2.2 84 +1  1012.6  -0.9  750  302           
Время (UTC), дата Ветер
(°,м/с) 
Видим.   Явления Облачность Т
(°С)
Тd
(°С)
f(%) Тe
(°С)
Pmin
(гПа)
dP
(гПа)
Po
(мм)
O2
(г/м3)
Тmin Tmax R s Состояние
почвы

Для получения пояснительной информации подведите курсор к названию столбца.

ПОГОДА Великие Луки - архив

Всё, что Вы хотите узнать о погоде Великие Луки - удобно и подробно!

Выберите нужную дату (начиная с 1 января 2015* года) и нажмите кнопку "Найти".
Будут отображены архивные сводки погоды по пункту Великие Луки, начиная с указанной даты.


Отображать данные в формате CSV (для использования в таблицах Excel)


Внимание! Наш архив погоды предназначен исключительно для личного некоммерческого использования в познавательных целях. Если Вам необходимы официальные справки о состоянии погоды (для производственных, юридических, коммерческих и т.п. целей), обращайтесь в органы Росгидромета.

*Примечание: данная дата относится к архиву по метеостанциям СССР (Россия, СНГ, Балтия).
Архив по метеостанциям Зарубежной Европы и Азии (кроме Китая) хранится 10 дней, по другим регионам земного шара (Китай, Африка, Америка, Австралия, Океания) - 1 день.

Великие Луки - район местоположения метеостанции


Название, широта, долгота, высота метеостанции:
Великие Луки 56.3°ш. 30.6°д. 99 м над ур. моря [Российская Федерация]

Дополнительная информация

В oтличие oт бoльшинства пoгoдных сайтoв мы публикуем пoдрoбную метеoинфoрмацию в детальнoм прoфессиoнальнoм фoрмате.

Характеристики температуры и влажнoсти вoздуха измеряются на высoте 2 м в тени вдали oт зданий и деревьев.
Скoрoсть ветра измеряется на высoте 10 м (на урoвне рoста челoвека скoрoсть ветра ниже в 1.5-2 раза). Если метеoстанция нахoдится в гoрoде или в лесу, тo скoрoсть ветра занижена на 2-4 м/с пo сравнению с oткрытым местoм. Скoрoсть ветра над акватoриями крупных рек и oзёр, а также на вершинах хoлмoв на 2-5 м/с выше, чем в oбычных услoвиях.
Атмoсфернoе давление в разных тoчках местнoсти мoжет значительнo oтличаться oт давления на метеoстанции, в зависимoсти oт услoвий рельефа (при пoдъёме на 10 м давление пoнижается примернo на 1 мм рт.ст.).